Wind_Speed
8 8 8 4 3 5 5 7 8 8 7 7 7 7 7 6 7 7 7 6 6 5 4 6 7 6 5 5 5 6 5 4 4 4 4 4 3 4 4 7 8 8 9
7 6 7 6 3 4 6 7 8 8 8 7 7 7 7 7 7 7 7 7 7 6 4 6 6 6 5 6 6 5 4 5 4 4 3 2 0 2 4 4 5 5 9
9 5 6 6 5 4 6 8 8 8 6 6 6 6 6 7 6 6 6 6 6 6 6 5 6 6 5 5 5 4 4 4 4 4 4 2 1 3 3 3 4 6 6
9 5 4 4 4 3 4 6 7 7 6 4 4 4 4 5 5 5 5 5 5 5 5 5 6 5 4 4 3 3 4 4 4 3 2 1 2 2 3 3 4 5 4
12 7 2 1 2 2 4 5 5 6 6 5 4 2 2 3 3 3 3 3 3 3 3 3 4 4 4 4 3 3 1 1 1 2 3 2 2 3 2 1 2 4 4
12 10 4 2 2 0 1 3 5 5 5 5 4 3 2 1 1 1 1 1 1 1 2 1 2 2 2 3 4 4 4 2 2 2 3 3 2 3 2 2 2 3 3
10 8 6 4 2 4 3 2 3 4 5 5 5 4 4 3 2 2 1 1 1 1 2 3 3 3 4 4 4 4 5 3 4 4 4 5 6 5 5 3 3 2 2
10 9 8 6 5 3 5 7 7 7 8 8 8 7 7 6 6 5 4 3 3 2 3 4 5 6 6 6 6 6 5 5 6 7 6 6 7 7 7 6 6 4 3
9 9 7 6 5 5 5 4 7 10 12 12 12 11 11 10 10 10 9 8 7 6 5 5 6 7 7 8 9 8 7 7 8 8 9 9 8 9 8 8 8 7 6
9 10 8 6 5 1 2 4 4 4 7 10 14 14 14 14 14 14 14 13 12 11 10 9 7 8 9 10 12 11 11 10 11 10 10 9 9 9 9 9 9 9 8
10 10 10 9 7 5 4 2 2 0 2 4 7 11 16 17 17 17 17 17 17 16 15 14 12 11 11 11 14 14 13 13 13 13 12 11 10 10 10 9 8 9 9
13 12 12 11 11 9 8 8 7 4 3 4 6 7 9 13 18 20 20 21 21 21 20 19 18 16 15 14 15 16 16 17 16 15 15 13 12 12 12 10 11 9 9
14 15 14 13 13 11 11 12 12 11 11 8 7 8 10 11 12 17 22 24 25 24 24 24 23 22 21 19 18 18 18 19 19 19 18 17 15 14 14 12 12 11 11
11 12 12 12 12 13 14 15 14 15 16 16 16 14 12 12 15 16 17 19 23 27 28 28 27 27 25 24 22 21 21 21 21 21 21 20 19 17 17 15 14 13 13
13 13 14 15 15 16 18 19 20 20 19 19 20 20 20 18 18 19 23 23 22 23 24 29 31 31 30 28 27 26 25 24 24 23 23 23 22 21 20 19 17 16 15
16 17 18 18 18 19 21 22 24 25 26 25 25 25 26 25 24 25 24 26 30 30 27 27 28 30 33 32 31 30 29 28 27 26 25 25 25 24 24 23 21 19 18
16 15 13 13 14 16 17 18 19 24 27 29 31 32 30 31 30 32 32 30 31 33 35 32 30 30 30 32 35 34 33 32 31 30 29 27 27 26 26 26 25 23 21
12 12 13 12 12 12 13 15 18 20 22 25 28 30 34 37 38 39 38 37 38 36 34 35 35 30 29 30 32 35 37 36 35 34 32 31 29 28 28 27 27 26 25
14 15 17 19 20 21 21 20 19 20 21 24 26 28 30 32 34 38 43 44 43 44 43 39 38 39 35 32 32 33 34 37 38 37 36 34 33 31 30 28 29 29 28
15 16 18 19 20 21 23 25 27 29 31 31 31 31 31 32 33 34 35 37 44 48 46 48 46 42 40 38 35 34 33 34 35 36 37 37 36 34 32 31 30 30 30
16 18 20 21 22 23 23 24 26 28 31 34 37 37 37 38 39 39 40 40 40 41 45 47 51 50 48 44 43 40 37 35 35 34 35 35 36 35 34 33 32 32 31
19 21 24 26 27 28 29 30 32 33 32 33 35 36 39 42 43 42 42 42 43 45 45 46 45 50 54 52 48 44 44 41 38 35 35 33 34 36 35 34 34 33 32
24 27 30 32 35 37 39 39 40 40 41 41 41 40 38 38 38 40 43 45 46 47 48 49 49 47 50 55 56 54 47 49 42 41 36 35 36 36 35 35 35 34 33
30 33 35 36 38 40 41 42 43 44 44 45 46 47 48 48 47 43 40 40 42 46 51 53 52 52 53 52 56 53 52 49 47 42 43 40 36 36 37 36 36 34 34
32 34 37 39 39 41 43 45 47 48 48 49 50 50 50 51 50 49 47 44 41 42 46 51 55 55 55 54 54 55 55 58 55 49 49 47 43 37 35 38 37 35 34
33 37 40 40 43 45 46 47 49 50 52 52 53 54 54 53 53 52 49 47 46 42 42 44 46 52 54 56 54 54 54 59 59 54 55 49 49 46 38 37 41 39 37
Wind_Direction
25 31 40 57 96 118 125 128 121 114 108 100 93 86 83 80 80 87 93 101 100 100 89 83 92 100 90 78 83 93 100 99 91 103 124 120 93 56 28 24 21 29 22
14 31 41 52 83 121 128 134 133 128 125 114 100 85 80 81 83 82 83 93 105 100 104 98 93 103 104 94 88 94 110 117 126 126 144 171 123 14 28 23 21 12 7
13 16 35 44 67 114 133 133 137 132 127 117 106 95 83 83 85 88 88 92 100 102 110 112 105 103 106 114 98 103 114 121 131 143 155 189 276 335 354 5 353 350 349
16 13 27 38 64 100 143 144 146 142 135 128 117 107 97 89 88 90 91 94 94 102 105 112 113 110 106 130 137 100 130 128 138 154 180 216 270 301 322 329 342 345 6
14 13 351 31 67 135 156 160 166 160 160 156 149 138 110 100 98 95 98 98 109 107 102 103 107 115 128 122 146 162 119 131 158 176 185 179 269 265 262 294 12 30 36
5 18 10 277 246 266 209 193 185 184 188 185 183 188 186 169 108 99 109 117 143 160 164 176 159 158 142 165 180 186 195 238 273 261 240 218 216 235 244 291 332 8 24
348 359 10 13 305 264 262 261 246 236 232 224 220 225 231 233 238 245 267 295 270 248 239 250 234 228 222 217 207 209 219 243 259 263 262 261 259 268 273 275 288 297 309
334 344 346 347 343 299 257 246 241 240 239 235 235 234 236 241 243 248 253 259 268 262 258 256 261 254 255 254 246 237 239 243 253 267 266 265 266 266 272 279 279 282 277
310 324 330 334 335 332 317 286 255 249 247 245 238 234 235 235 237 239 243 251 259 267 265 260 258 258 259 259 253 251 247 248 258 260 263 263 264 267 268 268 271 272 271
284 298 313 322 310 293 317 304 298 285 266 255 252 250 245 244 242 242 239 239 244 251 257 257 259 264 256 255 259 253 249 249 253 255 255 255 259 263 263 265 267 269 266
263 282 296 310 312 281 262 257 262 358 333 274 261 255 251 249 249 250 249 246 244 243 248 256 252 254 257 254 255 255 253 251 251 254 255 254 255 258 262 268 266 264 266
258 264 276 286 297 297 278 257 255 264 272 306 310 293 274 261 254 252 251 251 249 248 246 247 253 251 253 253 253 255 254 253 253 253 254 253 254 256 261 263 264 263 261
265 267 269 275 279 282 287 284 270 263 255 252 266 292 295 283 272 266 260 256 254 251 248 247 246 248 249 250 252 255 255 254 253 253 253 253 252 253 257 260 262 261 258
273 270 270 270 267 267 270 274 273 269 265 261 260 253 261 279 284 278 273 269 264 260 257 252 249 247 247 247 247 249 252 254 254 253 252 251 250 249 253 253 257 258 258
273 270 271 271 268 264 265 265 265 264 263 260 259 258 258 255 267 279 285 280 275 272 267 262 257 252 249 247 246 245 245 247 251 253 252 250 250 249 249 251 251 253 254
276 277 277 275 272 267 264 264 264 260 259 262 262 261 257 256 254 258 261 273 281 278 274 275 268 262 255 251 248 246 246 245 245 247 249 250 249 248 247 247 248 250 250
282 283 283 283 280 275 273 274 273 268 265 264 263 263 261 259 259 255 259 259 266 273 280 279 273 270 265 260 254 251 248 247 246 245 246 248 248 248 248 247 246 246 246
301 303 304 303 302 298 291 287 283 279 276 274 272 270 264 260 261 259 261 262 261 259 262 268 274 270 270 266 259 254 252 251 249 248 246 247 249 249 248 248 248 246 245
316 318 319 320 319 317 314 308 301 292 286 283 281 279 278 275 271 266 262 261 260 261 260 259 261 268 268 269 262 258 255 253 252 251 250 248 249 250 251 250 249 248 246
312 314 314 314 313 312 310 308 308 308 305 300 295 289 285 282 280 278 274 268 262 260 260 260 258 255 258 262 260 260 258 256 254 253 252 251 251 251 252 252 251 251 248
311 311 311 309 307 302 297 294 291 288 286 285 286 285 284 284 284 281 278 277 274 269 265 261 260 258 252 251 255 259 259 257 255 255 254 254 254 254 252 252 253 253 251
309 312 314 313 310 307 303 301 299 298 295 291 286 282 281 280 280 278 274 271 269 269 268 266 262 258 257 252 250 253 256 256 254 258 257 256 254 253 253 252 251 252 253
315 316 314 313 313 313 312 312 310 308 307 305 302 300 296 291 284 278 273 270 267 261 258 259 260 257 252 254 249 246 249 248 258 261 258 256 258 258 254 251 251 251 252
316 315 314 313 313 312 312 311 310 308 306 304 303 302 300 298 296 292 284 275 269 263 258 254 253 252 252 250 250 252 256 245 247 254 257 256 257 259 256 250 249 249 250
310 309 309 310 311 311 310 310 310 307 306 304 302 300 298 296 294 292 289 284 274 265 260 254 254 255 253 253 248 248 248 247 248 243 252 260 259 258 255 254 249 247 247
307 308 309 309 310 311 311 309 308 307 306 304 302 300 298 295 293 290 286 281 277 272 264 260 255 254 256 256 255 253 248 245 245 245 247 247 257 262 257 253 250 245 245
Height
3195 3194 3192 3192 3192 3192 3191 3191 3191 3190 3190 3189 3188 3187 3186 3185 3185 3184 3183 3183 3183 3182 3181 3181 3180 3179 3179 3179 3178 3178 3178 3177 3177 3177 3177 3177 3177 3177 3176 3174 3173 3172 3171
3196 3194 3193 3192 3192 3192 3192 3191 3191 3190 3190 3190 3189 3188 3188 3187 3186 3185 3184 3184 3183 3182 3182 3181 3181 3180 3180 3180 3179 3179 3178 3178 3178 3178 3178 3179 3178 3177 3176 3176 3175 3174 3172
3196 3195 3194 3193 3193 3193 3193 3192 3192 3191 3191 3191 3190 3189 3188 3187 3187 3186 3185 3184 3183 3183 3182 3182 3181 3181 3181 3181 3180 3180 3180 3179 3179 3178 3178 3178 3178 3177 3177 3176 3175 3174 3173
3196 3195 3194 3194 3193 3193 3193 3192 3192 3192 3192 3192 3191 3190 3189 3188 3187 3187 3186 3186 3185 3184 3183 3182 3182 3182 3181 3181 3181 3181 3180 3180 3180 3180 3179 3179 3178 3178 3177 3177 3176 3175 3173
3197 3195 3194 3193 3193 3192 3192 3191 3192 3191 3191 3190 3191 3191 3190 3189 3188 3187 3187 3186 3185 3185 3184 3183 3182 3182 3182 3181 3181 3181 3181 3180 3180 3179 3179 3179 3178 3177 3177 3176 3176 3175 3173
3197 3195 3193 3193 3193 3193 3192 3192 3191 3191 3191 3190 3190 3190 3190 3190 3189 3188 3187 3187 3186 3186 3185 3184 3183 3183 3182 3181 3181 3181 3180 3180 3180 3179 3178 3178 3178 3177 3176 3175 3174 3174 3173
3196 3195 3194 3193 3192 3192 3192 3192 3192 3191 3191 3191 3190 3190 3190 3189 3189 3188 3188 3187 3186 3186 3185 3184 3183 3183 3182 3181 3181 3180 3180 3179 3179 3178 3178 3177 3177 3176 3175 3175 3174 3174 3173
3196 3195 3194 3193 3192 3190 3190 3189 3189 3189 3188 3188 3188 3188 3188 3188 3188 3187 3187 3186 3186 3185 3184 3183 3183 3183 3182 3182 3180 3180 3180 3179 3178 3178 3177 3176 3176 3175 3175 3174 3173 3173 3173
3195 3194 3193 3192 3190 3189 3188 3187 3187 3186 3186 3186 3186 3185 3185 3185 3185 3185 3185 3185 3184 3184 3183 3182 3182 3181 3181 3181 3180 3179 3179 3178 3177 3177 3176 3175 3175 3174 3174 3173 3173 3172 3172
3195 3193 3192 3192 3190 3189 3188 3187 3186 3185 3185 3184 3184 3184 3184 3183 3183 3182 3182 3181 3181 3181 3181 3180 3180 3179 3179 3178 3178 3178 3177 3177 3176 3175 3175 3174 3174 3173 3172 3171 3171 3171 3171
3195 3193 3192 3191 3191 3190 3188 3187 3185 3184 3183 3182 3181 3181 3180 3180 3180 3180 3179 3179 3178 3177 3177 3177 3177 3177 3176 3176 3176 3175 3175 3174 3174 3173 3172 3172 3171 3171 3170 3170 3169 3169 3169
3193 3192 3191 3190 3189 3189 3187 3186 3185 3183 3182 3181 3180 3179 3178 3177 3176 3176 3175 3175 3174 3174 3174 3174 3173 3174 3173 3173 3173 3172 3171 3171 3171 3170 3169 3169 3169 3168 3168 3168 3167 3167 3168
3190 3189 3189 3188 3187 3186 3185 3184 3183 3182 3181 3179 3178 3177 3176 3175 3174 3173 3172 3172 3171 3170 3170 3169 3169 3168 3169 3169 3169 3168 3168 3167 3167 3167 3166 3166 3165 3165 3165 3165 3164 3165 3165
3187 3186 3185 3185 3184 3183 3181 3180 3180 3179 3178 3178 3175 3174 3173 3172 3170 3169 3168 3167 3167 3166 3166 3165 3164 3164 3163 3163 3163 3163 3163 3163 3163 3162 3162 3162 3162 3162 3161 3161 3161 3161 3162
3182 3181 3181 3180 3179 3178 3177 3176 3175 3174 3173 3173 3172 3171 3170 3169 3167 3166 3165 3164 3163 3162 3160 3160 3160 3159 3158 3158 3157 3157 3157 3157 3157 3157 3157 3158 3158 3158 3157 3157 3157 3157 3158
3177 3176 3176 3175 3174 3173 3172 3171 3170 3169 3168 3167 3166 3165 3164 3164 3162 3161 3159 3157 3156 3156 3156 3155 3154 3153 3153 3152 3151 3151 3151 3150 3150 3151 3151 3151 3152 3152 3153 3153 3153 3153 3153
3172 3172 3171 3170 3169 3168 3167 3166 3164 3163 3162 3161 3160 3159 3158 3157 3157 3155 3154 3153 3151 3149 3148 3148 3148 3147 3146 3146 3146 3145 3144 3144 3144 3144 3145 3145 3145 3146 3147 3148 3148 3149 3149
3168 3167 3167 3166 3165 3163 3162 3161 3159 3158 3156 3155 3153 3152 3151 3151 3150 3148 3148 3148 3145 3143 3141 3140 3140 3141 3140 3139 3138 3138 3137 3137 3137 3138 3138 3139 3139 3140 3140 3141 3142 3143 3144
3164 3163 3162 3160 3159 3157 3156 3155 3153 3152 3150 3148 3147 3145 3144 3142 3141 3139 3139 3138 3137 3135 3135 3133 3132 3132 3132 3132 3131 3130 3130 3129 3130 3130 3131 3132 3132 3133 3134 3136 3136 3137 3138
3162 3160 3159 3157 3156 3154 3151 3149 3146 3143 3142 3140 3139 3137 3136 3134 3132 3130 3129 3127 3126 3126 3126 3125 3123 3123 3123 3123 3123 3122 3122 3122 3122 3122 3123 3124 3125 3126 3127 3129 3130 3131 3132
3158 3156 3155 3153 3151 3149 3147 3145 3142 3140 3137 3134 3130 3127 3126 3124 3122 3121 3119 3117 3116 3115 3114 3114 3113 3113 3113 3112 3112 3114 3114 3114 3114 3115 3115 3116 3117 3118 3119 3121 3122 3123 3125
3153 3151 3149 3147 3144 3142 3140 3137 3135 3131 3129 3125 3122 3120 3116 3113 3111 3109 3107 3106 3104 3103 3101 3101 3101 3101 3102 3102 3102 3103 3103 3105 3106 3107 3108 3108 3109 3109 3111 3113 3114 3116 3117
3148 3146 3143 3140 3136 3132 3128 3125 3122 3119 3115 3112 3109 3106 3104 3101 3099 3096 3094 3092 3090 3088 3088 3087 3087 3087 3088 3089 3089 3091 3092 3091 3096 3096 3099 3100 3101 3101 3103 3104 3105 3107 3109
3142 3140 3136 3133 3129 3125 3121 3117 3114 3110 3106 3102 3098 3094 3090 3086 3083 3080 3079 3077 3076 3074 3073 3072 3071 3071 3072 3073 3074 3077 3078 3076 3082 3086 3088 3090 3092 3093 3095 3095 3096 3099 3101
3138 3135 3131 3127 3123 3119 3115 3110 3104 3099 3095 3091 3086 3082 3078 3074 3070 3067 3063 3062 3060 3060 3058 3058 3058 3057 3057 3058 3059 3062 3066 3067 3070 3073 3076 3078 3081 3084 3086 3087 3088 3089 3092
3133 3129 3124 3120 3116 3111 3106 3101 3095 3089 3083 3078 3073 3068 3064 3060 3056 3053 3051 3048 3045 3045 3044 3043 3043 3043 3043 3043 3045 3047 3049 3052 3056 3059 3064 3069 3070 3073 3076 3077 3078 3080 3082